#timestamp,LO_Frequency,Hit,StdDev 
1549105215.2,286047000.4,N
1549105235.0,286047000.5,N
1549105235.9,286047000.5,N
1549105255.8,286047000.3,N
1549105275.6,286047000.5,N
1549105295.4,286047000.9,N
1549105315.3,286047000.2,N
1549105335.1,286047002.8,N
1549105355.9,286047000.3,N
1549105375.7,286047000.3,N
1549105395.5,286047001.0,N
1549105415.4,286047000.4,N
1549105435.2,286046999.7,N
1549105455.1,286047002.4,N
1549105456.0,286047002.4,N
1549105475.8,286047000.4,N
1549105495.6,286047001.0,N
1549105515.5,286047000.5,N
1549105535.3,286047000.7,N
1549105555.2,286047000.6,N
1549105575.9,286047000.6,N
1549105595.7,286046998.2,N
1549105615.6,286047000.4,N
1549105635.4,286046999.8,N
1549105655.3,286047002.7,N
1549105675.1,286047000.7,N
1549105676.0,286047000.7,N
1549105695.8,286047000.7,N
1549105715.7,286047001.2,N
1549105735.5,286047000.8,N
1549105755.3,286046998.5,N
1549105775.2,286047000.6,N
1549105795.0,286047000.0,N
1549105795.9,286047000.0,N
1549105815.8,286047000.6,N
1549105835.6,286047000.9,N
1549105855.4,286046999.2,N
1549105875.3,286046999.0,N
1549105895.1,286046998.3,N
1549105915.9,286047001.1,N
1549105935.7,286046999.8,N
1549105955.5,286047002.7,N
1549105975.4,286047000.1,N
1549105995.2,286047000.9,N
1549106015.0,286046998.6,N
1549106015.9,286046998.6,N
1549106035.8,286047000.3,N
1549106055.6,286047000.2,N
1549106075.5,286047002.1,N
1549106095.3,286046999.7,N
1549106115.1,286047002.3,N
1549106135.9,286047002.1,N
1549106155.7,286046999.8,N
1549106175.6,286047001.5,N
1549106195.4,286047001.5,N
1549106215.2,286047001.8,N
1549106235.1,286047001.4,N
1549106236.0,286047001.4,N
1549106255.8,286047002.0,N
1549106275.6,286047002.4,N
1549106295.5,286047002.4,N
1549106315.3,286047002.7,N
1549106335.2,286046999.9,N
1549106355.9,286047000.5,N
1549106375.7,286046999.7,N
1549106395.6,286046999.9,N
1549106415.4,286047000.4,N
1549106435.2,286047000.6,N
1549106455.1,286047000.7,N
1549106456.0,286047000.7,N
1549106475.8,286046998.5,N
1549106495.7,286047001.1,N
1549106515.5,286046999.8,N
1549106535.3,286047000.1,N
1549106555.2,286046999.8,N
1549106575.0,286046999.7,N
1549106575.9,286046999.7,N
1549106595.7,286046999.8,N
1549106615.6,286047000.0,N
1549106635.4,286047000.9,N
1549106655.3,286047000.8,N
1549106675.1,286046998.3,N
1549106676.0,286046998.3,N
1549106695.8,286047000.9,N
1549106715.7,286047000.1,N
1549106735.5,286047002.6,N
1549106755.3,286047002.6,N
1549106775.2,286047002.4,N
1549106795.0,286047004.4,Y
1549106795.9,286047004.4,P
1549106815.8,286047000.5,N
1549106835.6,286047002.3,N
1549106855.4,286047002.2,N
1549106875.3,286047000.1,N
1549106895.1,286046999.7,N
1549106915.8,286046999.7,N
1549106935.7,286046999.8,N
1549106955.5,286047000.2,N
1549106975.4,286047001.0,N
1549106995.2,286047000.7,N
1549107015.0,286047002.3,N
1549107015.9,286047002.3,N
1549107035.8,286047002.2,N
1549107055.6,286047000.6,N
1549107075.5,286047000.4,N
1549107095.3,286047001.5,N
1549107115.1,286047002.5,N
1549107135.9,286047001.7,N
1549107155.7,286047004.3,Y
1549107175.6,286047002.5,P
1549107195.4,286047002.4,P
1549107215.2,286047001.9,P
1549107235.1,286047002.4,Y
1549107236.0,286047002.4,P
1549107255.8,286046998.2,P
1549107275.7,286046998.5,N
1549107295.6,286046999.4,N
1549107315.4,286046999.4,N
1549107335.3,286046998.7,N
1549107355.1,286047000.2,N
1549107356.0,286047000.2,N
1549107375.8,286046998.4,N
1549107395.7,286047000.9,N
1549107415.5,286046998.4,N
1549107435.8,286046998.5,N
1549107455.6,286046998.6,N
1549107475.5,286046998.6,N
1549107495.3,286046998.1,N
1549107515.2,286047001.2,N
1549107535.9,286046998.6,N
1549107555.7,286047000.9,N
1549107575.6,286047000.9,N
1549107595.4,286047000.4,N
1549107615.6,286046998.9,N
1549107635.5,286046999.4,N
1549107655.3,286046997.1,N
1549107675.2,286046996.5,N
1549107695.3,286046998.9,N
1549107715.2,286046998.3,N
1549107735.0,286046999.6,N
1549107735.9,286046999.6,N
1549107755.8,286046999.2,N
1549107775.6,286046999.3,N
1549107795.4,286046998.4,N
1549107815.3,286046998.2,N
1549107835.1,286046998.5,N
1549107855.9,286047001.1,N
1549107875.7,286047001.2,N
1549107895.5,286046999.6,N
1549107915.4,286046997.3,N
1549107935.2,286046997.7,N
1549107955.0,286046997.7,N
1549107956.0,286046997.7,N
1549107975.8,286046997.3,N
1549107995.6,286046997.7,N
1549108015.5,286046996.8,N
1549108035.3,286046999.3,N
1549108055.1,286046998.5,N
1549108075.9,286046999.6,N
1549108095.7,286046996.7,N
1549108115.6,286046997.5,N
1549108135.4,286046996.6,N
1549108155.2,286046999.2,N
1549108175.1,286046999.0,N
1549108176.0,286046999.0,N
1549108195.8,286046997.2,N
1549108215.6,286046999.5,N
1549108235.5,286046996.6,N
1549108255.3,286046998.3,N
1549108275.2,286047000.8,N
1549108295.9,286047001.1,N
1549108315.7,286046999.4,N
1549108335.6,286046996.5,N
1549108355.4,286046999.0,N
1549108375.2,286046999.3,N
1549108395.1,286046999.0,N
1549108396.0,286046999.0,N
1549108415.8,286046999.1,N
1549108435.7,286046999.0,N
1549108455.5,286046998.9,N
1549108475.3,286046996.7,N
1549108495.2,286046997.2,N
1549108515.0,286046997.0,N
1549108515.9,286046997.0,N
1549108535.8,286046999.4,N
1549108555.6,286046997.1,N
1549108575.4,286046995.1,Y
1549108595.3,286046996.6,P
1549108615.1,286046998.7,N
1549108635.9,286047001.1,N
1549108655.7,286046998.1,N
1549108675.5,286046998.4,N
1549108695.4,286046999.8,N
1549108715.2,286046998.6,N
1549108735.0,286046998.2,N
1549108735.9,286046998.2,N
1549108755.8,286046998.2,N
1549108775.6,286047001.0,N
1549108795.5,286047000.7,N
